KT4FD Weather Reports


time (UTC)temp
C
wind
direction
speed
KPH
gust
KPH
rain 1hr
cm
rain 24hr
cm
rain mn
cm
humidity
%
barometer
mb
20260831020003 22 350 0.0 0.0 0.00 0.00 0.00 88 1022.1
20260831000003 27 351 0.0 0.0 0.00 0.00 0.00 76 1020.6
20260830235002 27 351 0.0 0.0 0.00 0.00 0.00 73 1020.6
20260830234002 28 351 0.0 0.0 0.00 0.00 0.00 71 1020.6
20260830233002 28 351 0.0 0.0 0.00 0.00 0.00 71 1020.6
20260830232002 29 351 0.0 0.0 0.00 0.00 0.00 69 1020.6
20260830231003 29 351 0.0 3.2 0.00 0.00 0.00 69 1020.6
20260830230002 29 351 0.0 3.2 0.00 0.00 0.00 67 1020.7
20260830225002 30 350 1.6 4.8 0.00 0.00 0.00 64 1020.8
20260830224002 30 350 0.0 4.8 0.00 0.00 0.00 65 1020.8
20260830223003 30 350 3.2 4.8 0.00 0.00 0.00 66 1020.7
20260830222002 30 350 1.6 8.0 0.00 0.00 0.00 65 1020.7
20260830221002 30 348 0.0 4.8 0.00 0.00 0.00 64 1020.7
20260830220003 30 348 1.6 4.8 0.00 0.00 0.00 65 1020.8
20260830215003 30 348 3.2 9.7 0.00 0.00 0.00 64 1020.7
20260830204003 29 5 1.6 4.8 0.00 0.00 0.00 70 1021.0
20260830203003 29 5 3.2 8.0 0.00 0.00 0.00 70 1021.0
20260830202002 28 11 3.2 4.8 0.00 0.00 0.00 70 1021.1
20260830201002 29 11 0.0 0.0 0.00 0.00 0.00 69 1021.1
20260830200002 29 11 0.0 4.8 0.00 0.00 0.00 69 1021.2
20260830195003 28 0 1.6 8.0 0.00 0.00 0.00 68 1021.4
20260830194003 28 0 4.8 8.0 0.00 0.00 0.00 69 1021.6
20260830193002 28 0 3.2 8.0 0.00 0.00 0.00 71 1021.7
20260830192002 28 0 4.8 14.5 0.00 0.00 0.00 69 1021.8
20260830191002 28 355 3.2 8.0 0.00 0.00 0.00 70 1021.8
20260830190002 28 355 3.2 9.7 0.00 0.00 0.00 72 1022.0
20260830185002 28 355 3.2 4.8 0.00 0.00 0.00 70 1022.1
20260830164002 26 339 1.6 8.0 0.00 0.00 0.00 78 1023.8
20260830163002 26 339 1.6 9.7 0.00 0.00 0.00 81 1024.0
20260830162002 26 324 3.2 9.7 0.00 0.00 0.00 80 1024.0
20260830161002 26 323 1.6 8.0 0.00 0.00 0.00 81 1024.1
20260830160002 25 332 1.6 9.7 0.00 0.00 0.00 83 1024.2
20260830155003 25 332 3.2 8.0 0.00 0.00 0.00 81 1024.3
20260830144002 24 328 0.0 1.6 0.00 0.00 0.00 86 1024.5
20260830143002 24 327 0.0 3.2 0.00 0.00 0.00 89 1024.3
20260830142003 23 327 1.6 8.0 0.00 0.00 0.00 90 1024.4
20260830141003 23 329 0.0 8.0 0.00 0.00 0.00 91 1024.5
20260830140003 23 325 1.6 4.8 0.00 0.00 0.00 91 1024.4
20260830135002 22 325 0.0 3.2 0.00 0.00 0.00 91 1024.5
20260830104002 20 325 0.0 0.0 0.00 0.00 0.00 91 1022.7
20260830103002 20 325 0.0 0.0 0.00 0.00 0.00 91 1022.6
20260830102003 20 325 0.0 0.0 0.00 0.00 0.00 91 1022.6
20260830101002 20 325 0.0 0.0 0.00 0.00 0.00 91 1022.5
20260830100003 20 325 0.0 0.0 0.00 0.00 0.00 91 1022.5
20260830095002 20 325 0.0 0.0 0.00 0.00 0.00 91 1022.5